User: anonymous   Login
Location: Goudex
(43.3760°N, 0.9543°E)
Time: 23:50:19
(UTC+00:00)
Language:

PAYLOAD A - Orbit

View from above orbital plane
View from above orbital plane
View from above satellite
View from above satellite

Ground track
Ground track

The orbit data is extracted from the following two-line orbital elements,

1 27840U 03031A   20023.53493264 -.00000017 +00000-0 +80678-5 0  9994
2 27840 098.3021 359.6822 0099046 137.0011 223.8972 14.38932008869882
Epoch (UTC): 23 January 2020 12:50:18
Eccentricity: 0.0099046
inclination: 98.3021°
perigee height: 691 km
apogee height: 833 km
right ascension of ascending node: 359.6822°
argument of perigee: 137.0011°
revolutions per day: 14.38932008
mean anomaly at epoch: 223.8972°
orbit number at epoch: 86988

The dashed part of the orbit path shows where the satellite is in the earth's shadow,  

DLR